When you browse on this site, cookies collect data to enhance your experience and personalize the content and advertising you see.
Visit our Privacy Policy to learn more. By continuing to use the site, you agree to this use of cookies and data.
  • In Romania
  • List of Countries
  • For 7 days
  • Water Temperature
  • Satellite Maps
  • Weather Map
  • Weather Widgets
  • user-avatar
    Login

    Hourly Weather Isakovka

    Today, 24 March, Sunday

    Time Temperature Precipitation Wind Pressure Humidity
    00:00 -1°C° 0 mm 2 mps 748 mmHg 94%
    01:00 -2°C° 0 mm 2 mps 748 mmHg 94%
    02:00 -3°C° 0 mm 2 mps 747 mmHg 94%
    03:00 -2°C° 0 mm 1 mps 747 mmHg 96%
    04:00 -3°C° 0 mm 1 mps 747 mmHg 96%
    05:00 -3°C° 0 mm 1 mps 747 mmHg 97%
    06:00 -5°C° 0 mm 0 mps 746 mmHg 97%
    07:00 -3°C° 0 mm 1 mps 746 mmHg 97%
    08:00 -2°C° 0 mm 1 mps 746 mmHg 96%
    09:00 0°C° 0 mm 1 mps 745 mmHg 96%
    10:00 -2°C° 0 mm 2 mps 745 mmHg 97%
    11:00 -1°C° 0 mm 2 mps 744 mmHg 98%
    12:00 -1°C° 0 mm 3 mps 744 mmHg 99%
    13:00 -1°C° 0.1 mm 3 mps 743 mmHg 99%
    14:00 -2°C° 0.1 mm 4 mps 743 mmHg 99%
    15:00 -2°C° 0 mm 4 mps 742 mmHg 99%
    16:00 -2°C° 0.3 mm 4 mps 742 mmHg 97%
    17:00 -2°C° 0.3 mm 4 mps 742 mmHg 95%
    18:00 -2°C° 0.3 mm 4 mps 741 mmHg 94%
    19:00 -2°C° 0.1 mm 4 mps 741 mmHg 94%
    20:00 -2°C° 0.1 mm 4 mps 741 mmHg 95%
    21:00 -2°C° 0.1 mm 3 mps 740 mmHg 95%
    22:00 -2°C° 0 mm 3 mps 740 mmHg 94%
    23:00 -4°C° 0 mm 3 mps 740 mmHg 93%

    Tomorrow, 25 March, Monday

    Time Temperature Precipitation Wind Pressure Humidity
    00:00 -5°C° 0 mm 4 mps 739 mmHg 92%
    01:00 -5°C° 0 mm 4 mps 739 mmHg 91%
    02:00 -5°C° 0 mm 4 mps 739 mmHg 90%
    03:00 -5°C° 0 mm 4 mps 739 mmHg 89%
    04:00 -5°C° 0 mm 4 mps 739 mmHg 89%
    05:00 -5°C° 0 mm 4 mps 739 mmHg 89%
    06:00 -7°C° 0 mm 4 mps 739 mmHg 90%
    07:00 -5°C° 0 mm 4 mps 740 mmHg 89%
    08:00 -4°C° 0 mm 4 mps 740 mmHg 88%
    09:00 -4°C° 0 mm 5 mps 740 mmHg 88%
    10:00 -3°C° 0 mm 4 mps 740 mmHg 90%
    11:00 -2°C° 0 mm 4 mps 740 mmHg 91%
    12:00 -1°C° 0 mm 4 mps 741 mmHg 93%
    13:00 -1°C° 0 mm 4 mps 741 mmHg 94%
    14:00 -1°C° 0 mm 4 mps 741 mmHg 95%
    15:00 -1°C° 0 mm 4 mps 741 mmHg 95%
    16:00 -1°C° 0 mm 4 mps 741 mmHg 94%
    17:00 -1°C° 0 mm 3 mps 741 mmHg 92%
    18:00 -1°C° 0 mm 3 mps 741 mmHg 91%
    19:00 -2°C° 0 mm 3 mps 741 mmHg 90%
    20:00 -2°C° 0 mm 3 mps 741 mmHg 88%
    21:00 -4°C° 0 mm 3 mps 742 mmHg 87%
    22:00 -4°C° 0 mm 3 mps 742 mmHg 86%
    23:00 -4°C° 0 mm 3 mps 742 mmHg 85%

    Day after tomorrow, 26 March, Tuesday

    Time Temperature Precipitation Wind Pressure Humidity
    00:00 -4°C° 0 mm 3 mps 741 mmHg 83%
    01:00 -4°C° 0 mm 3 mps 741 mmHg 84%
    02:00 -4°C° 0 mm 3 mps 741 mmHg 84%
    03:00 -4°C° 0 mm 3 mps 741 mmHg 84%
    04:00 -4°C° 0 mm 3 mps 741 mmHg 85%
    05:00 -4°C° 0 mm 3 mps 740 mmHg 86%
    06:00 -2°C° 0 mm 3 mps 740 mmHg 87%
    07:00 -2°C° 0.2 mm 3 mps 739 mmHg 88%
    08:00 -1°C° 0.2 mm 3 mps 739 mmHg 90%
    09:00 -1°C° 0.2 mm 3 mps 739 mmHg 92%
    10:00 -1°C° 0.6 mm 2 mps 739 mmHg 95%
    11:00 -1°C° 0.6 mm 2 mps 738 mmHg 97%
    12:00 +1°C° 0.6 mm 2 mps 738 mmHg 99%
    13:00 +1°C° 0 mm 2 mps 737 mmHg 99%
    14:00 0°C° 0 mm 3 mps 737 mmHg 99%
    15:00 0°C° 0 mm 3 mps 737 mmHg 99%
    16:00 0°C° 0 mm 3 mps 737 mmHg 99%
    17:00 0°C° 0 mm 3 mps 737 mmHg 99%
    18:00 0°C° 0 mm 3 mps 737 mmHg 99%
    19:00 -1°C° 0.7 mm 4 mps 737 mmHg 97%
    20:00 -1°C° 0.7 mm 4 mps 737 mmHg 95%
    21:00 -1°C° 0.7 mm 5 mps 737 mmHg 94%
    22:00 -2°C° 0 mm 5 mps 737 mmHg 93%
    23:00 -2°C° 0 mm 5 mps 737 mmHg 91%

    27 March, Wednesday

    Time Temperature Precipitation Wind Pressure Humidity
    00:00 -4°C° 0 mm 5 mps 738 mmHg 90%
    01:00 -4°C° 0 mm 4 mps 738 mmHg 90%
    02:00 -4°C° 0 mm 4 mps 738 mmHg 89%
    03:00 -5°C° 0 mm 4 mps 739 mmHg 89%
    04:00 -7°C° 0 mm 4 mps 739 mmHg 90%
    05:00 -7°C° 0 mm 4 mps 740 mmHg 90%
    06:00 -6°C° 0 mm 3 mps 740 mmHg 91%
    07:00 -6°C° 0 mm 3 mps 741 mmHg 89%
    08:00 -5°C° 0 mm 3 mps 741 mmHg 87%
    09:00 -4°C° 0 mm 3 mps 742 mmHg 85%
    10:00 -3°C° 0 mm 4 mps 742 mmHg 83%
    11:00 -3°C° 0 mm 4 mps 743 mmHg 81%
    12:00 -2°C° 0 mm 4 mps 743 mmHg 79%
    13:00 -2°C° 0 mm 4 mps 744 mmHg 79%
    14:00 -1°C° 0 mm 4 mps 744 mmHg 80%
    15:00 -1°C° 0 mm 4 mps 744 mmHg 80%
    16:00 -1°C° 0 mm 3 mps 745 mmHg 80%
    17:00 -1°C° 0 mm 3 mps 745 mmHg 80%
    18:00 -2°C° 0 mm 3 mps 745 mmHg 80%
    19:00 -4°C° 0 mm 3 mps 746 mmHg 80%
    20:00 -4°C° 0 mm 3 mps 746 mmHg 81%
    21:00 -5°C° 0 mm 3 mps 747 mmHg 82%
    22:00 -5°C° 0 mm 4 mps 747 mmHg 83%
    23:00 -5°C° 0 mm 4 mps 747 mmHg 84%

    28 March, Thursday

    Time Temperature Precipitation Wind Pressure Humidity
    00:00 -5°C° 0 mm 4 mps 748 mmHg 85%
    01:00 -7°C° 0 mm 4 mps 748 mmHg 86%
    02:00 -7°C° 0 mm 4 mps 748 mmHg 87%
    03:00 -7°C° 0 mm 4 mps 749 mmHg 88%
    04:00 -7°C° 0 mm 4 mps 749 mmHg 88%
    05:00 -7°C° 0 mm 4 mps 749 mmHg 89%
    06:00 -7°C° 0 mm 5 mps 750 mmHg 90%
    07:00 -6°C° 0 mm 5 mps 750 mmHg 88%
    08:00 -6°C° 0 mm 5 mps 751 mmHg 87%
    09:00 -5°C° 0 mm 6 mps 751 mmHg 85%
    10:00 -4°C° 0 mm 6 mps 752 mmHg 84%
    11:00 -4°C° 0 mm 6 mps 752 mmHg 82%
    12:00 -4°C° 0 mm 5 mps 753 mmHg 80%
    13:00 -2°C° 0 mm 5 mps 753 mmHg 78%
    14:00 -2°C° 0 mm 5 mps 753 mmHg 77%
    15:00 -1°C° 0 mm 4 mps 753 mmHg 75%
    16:00 -2°C° 0 mm 4 mps 753 mmHg 73%
    17:00 -2°C° 0 mm 3 mps 753 mmHg 72%
    18:00 -2°C° 0 mm 3 mps 754 mmHg 71%
    19:00 -4°C° 0 mm 3 mps 754 mmHg 72%
    20:00 -4°C° 0 mm 3 mps 754 mmHg 73%
    21:00 -5°C° 0 mm 3 mps 754 mmHg 74%
    22:00 -5°C° 0 mm 3 mps 754 mmHg 75%
    23:00 -5°C° 0 mm 3 mps 754 mmHg 75%

    29 March, Friday

    Time Temperature Precipitation Wind Pressure Humidity
    00:00 -5°C° 0 mm 3 mps 754 mmHg 76%
    01:00 -5°C° 0 mm 3 mps 753 mmHg 77%
    02:00 -5°C° 0 mm 4 mps 753 mmHg 78%
    03:00 -4°C° 0 mm 4 mps 753 mmHg 78%
    04:00 -4°C° 0 mm 4 mps 752 mmHg 80%
    05:00 -4°C° 0 mm 4 mps 752 mmHg 81%
    06:00 -5°C° 0 mm 5 mps 752 mmHg 83%
    07:00 -4°C° 0 mm 5 mps 751 mmHg 84%
    08:00 -2°C° 0 mm 5 mps 751 mmHg 85%
    09:00 -3°C° 0 mm 6 mps 751 mmHg 86%
    10:00 -2°C° 0 mm 6 mps 750 mmHg 89%
    11:00 -1°C° 0 mm 5 mps 750 mmHg 92%
    12:00 0°C° 0 mm 5 mps 750 mmHg 95%
    13:00 0°C° 0 mm 5 mps 750 mmHg 95%
    14:00 0°C° 0 mm 5 mps 749 mmHg 95%
    15:00 0°C° 0 mm 4 mps 749 mmHg 95%
    16:00 0°C° 0 mm 4 mps 749 mmHg 95%
    17:00 0°C° 0 mm 4 mps 749 mmHg 94%
    18:00 0°C° 0 mm 4 mps 748 mmHg 93%
    19:00 0°C° 0 mm 4 mps 749 mmHg 93%
    20:00 0°C° 0 mm 4 mps 749 mmHg 94%
    21:00 0°C° 0 mm 4 mps 749 mmHg 94%
    22:00 +1°C° 0 mm 3 mps 749 mmHg 95%
    23:00 +1°C° 0 mm 3 mps 749 mmHg 96%
    Show more